星链-4309 (STARLINK-4309 )

导读

STARLINK-4309是美国太空探索技术公司(SpaceX)星链(Starlink)项目的卫星,于2022年7月11日发射。星链项目旨在构建全球卫星互联网星座,该卫星加入星座后,进一步拓展了星链网络覆盖范围,为全球用户提供低延迟、高速率的宽带互联网服务。

Basic Information
目录编号:
53066
目录名称:
STARLINK-4309
国际标识:
2022-077Z
轨道中心:
EARTH
卫星名称:
星链-4309
卫星全名:
星链-4309 (STARLINK-4309 )
卫星状态:
在轨 (已飞行1437 天)
发射日期:
2022-07-11 UTC
国别 :
美国 (US)
星等 :
--
Orbit Information
数据来源 国际轨道数据 AOE轨道数据
星历时间 2026-06-17T09:43:22+0800
11小时前
查看轨道信息
2026-06-13T18:00:00+0800
4天前
查看轨道信息
半长轴 6927.616km 6927.643km
偏心率 0.0001525 0.0001613
轨道倾角 97.352° 97.370°
近地点辐角 130.427° 79.375°
升交点赤经 347.088° 343.599°
平近点角 229.710° 281.207°
近地点 548.422km 548.388km
远地点 550.536km 550.624km
周期 95.639分钟 95.640分钟
每日圈数 15.056606 15.056518
Detailed Information
固有亮度:
5
最大亮度:
2.5
卫星平台:
Starlink v1.5
覆盖范围:
全球
运营商:
太空探索技术公司
运营商所在国:
美国
制造商(研发单位):
太空探索技术公司
制造商所在国:
美国
使用方式:
暂无
Satellite Introduction
星链(Starlink)计划是由太空探索技术公司(SpaceX)提出的一个巨型低轨卫星互联网星座项目,计划在2019年至2024年间在太空搭建由约1.2万颗卫星组成的“星链”网络,其中1584颗将部署在地球上空550千米处的近地轨道,并从2020年开始工作。该卫星仍在工作。
2D Orbit Map
3D Orbit Map
Orbit Altitude Analysis Chart
Orbit Inclination Analysis Chart
Orbit Comprehensive Analysis Chart
View Comprehensive Chart